FENGYUN 1C DEB, 30758

Orbit data source: Space-Track

FENGYUN 1C DEB, 30758 is space debris in SSO originally from a launch on Mon, 10 May 1999 UTC launched from the Taiyaun Space Center, China (TSC). Fengyun 1C debris stems from the Chinese weather satellite Fengyun-1C, which was intentionally destroyed by a Chinese anti-satellite missile in 2007. This event dramatically increased the amount of space debris, with thousands of trackable fragments posing hazards to satellites and human spaceflight. The Fengyun 1C debris cloud has become a focal point in discussions about space sustainability and the need for international regulations to prevent the creation of new debris.

Loading next visibility...
Identifier
30758, 1999-025ATU
Orbit
SSO
Country
Flag of CNCN / PRC
Related business
Manufacturer
Unknown
Mission
Spacecraft
Bus & Motor
Unknown
Mass
Unknown
Launch date (UTC)
1999-05-10 (27 years ago)
Launch vehicle
Unknown
Launch site
Taiyaun Space Center, China (TSC)
Object type
Payload
Rocket body
Debris
Shape & HBR
Unknown shape, 0.1 m
Radar Cross Section
Medium (>0.1 m² and <1 m²)

Expand to show TLE details & history
Last TLE update: 13 hours ago

TLE from 13 hours ago
0 FENGYUN 1C DEB
1 30758U 99025ATU 26168.89576895  .00001762  00000-0  87685-3 0  9991
2 30758  99.0334 295.4774 0040850 188.8895 296.7684 14.17921305991425
Epoch: 2026-06-17T21:29Z
TLE epoch observation values (Epoch: 2026-06-17T21:29:54.437Z)
Latitude
53.86824°
Longitude
-100.63618°
Altitude
828.022 km
Speed
7.451 km/s
True Right ascension
08h 31m 57s
True Declination
53° 42' 21"
Sunlit
Object was in daylight at epoch
Visualization orbit readout
Latitude
Unknown
Longitude
Unknown
Altitude
Unknown
Speed
Unknown
Apparent Right ascension
Unknown
Apparent Declination
Unknown
Sunlit
N/A
Visualization observer readout
Local Sidereal Time
20:57:51
Azimuth
Unknown
Elevation
Unknown
Doppler factor
Unknown
Orbital elements
Apogee altitude
859.012 km
Perigee altitude
800.125 km
Semi-major axis
7,207.705 km
Eccentricity
0.00409
Inclination
99.0334°
RAAN
295.4774°
Arg. of periapsis
188.8895°
True anomaly
296.3495°
Mean anomaly
296.7684°
Eccentric anomaly
296.55905°
Mean motion
3.54689 °/min
Orbital period
101.5 mins
BSTAR
0.00087685
Loading maneuver chart data...
Computing Atmospheric mass density...

Documentation

Showing up to 5 results
|